STARLINK-35538, 66475

Orbit data source: Space-Track

STARLINK-35538, 66475 is a payload satellite owned by SpaceX/Seattle (US) in LEO that was launched on Sat, 15 Nov 2025 UTC via an FALCON 9 launch vehicle from the Air Force Eastern Test Range (AFETR). Payload-class satellites include a variety of spacecraft equipped with specific instruments for various scientific and technological missions. These include communications satellites like Starlink; space stations such as the ISS; scientific satellites like the Hubble; Earth observation satellites from companies like Planet Labs, Umbra, and HawkEye 360; GPS; miniature CubeSats for education and research; and military/defense satellites.

Loading next visibility...
Identifier
66475, 2025-262V
Orbit
LEO
Country
Flag of USUS
Related business
Manufacturer
SpaceX/Seattle
Mission
Operational Commercial Communications
Bus & Motor
STARLINK V2MO, Unknown motor
Mass
575 kg wet, ~530 kg dry
Launch date (UTC)
2025-11-15 (7 months ago)
Launch vehicle
FALCON 9
Launch site
Air Force Eastern Test Range (AFETR)
Object type
Payload
Rocket body
Debris
Shape & HBR
Box + 2 Pan, 17.7 m
Radar Cross Section
36.964 m², Large (>1 m²)

Expand to show TLE details & history
Last TLE update: 17 hours ago

TLE from 17 hours ago
0 STARLINK-35538
1 66475U 25262V   26171.15378302  .00019100  00000-0  70128-3 0  9993
2 66475  43.0004  77.7876 0002750 247.6066 112.4495 15.27603753 34572
Epoch: 2026-06-20T03:41Z
TLE epoch observation values (Epoch: 2026-06-20T03:41:26.852Z)
Latitude
Longitude
114.05323°
Altitude
483.474 km
Speed
7.625 km/s
True Right ascension
05h 11m 09s
True Declination
0° 00' 00"
Sunlit
Object was in daylight at epoch
Visualization orbit readout
Latitude
Unknown
Longitude
Unknown
Altitude
Unknown
Speed
Unknown
Apparent Right ascension
Unknown
Apparent Declination
Unknown
Sunlit
N/A
Visualization observer readout
Local Sidereal Time
07:16:56
Azimuth
Unknown
Elevation
Unknown
Doppler factor
Unknown
Orbital elements
Apogee altitude
486.81 km
Perigee altitude
483.036 km
Semi-major axis
6,863.06 km
Eccentricity
0.00028
Inclination
43.0004°
RAAN
77.7876°
Arg. of periapsis
247.6066°
True anomaly
112.47862°
Mean anomaly
112.4495°
Eccentric anomaly
112.46406°
Mean motion
3.81739 °/min
Orbital period
94.31 mins
BSTAR
0.00070128
Loading maneuver chart data...
Computing Atmospheric mass density...
Loading historical data...
Loading historical data...
Loading historical data...
Loading historical data...
Loading historical data...
Loading historical data...
Loading historical data...

Documentation

Showing up to 5 results
|